| time (UTC) | temp F | wind direction | speed MPH | gust MPH | rain 1hr in | rain 24hr in | rain mn in | humidity % | barometer mb |
| 20260506001558 | 61 | 0 | 0.0 | 4.0 | 0.00 | 0.01 | 0.01 | 77 | 1014.8 |
| 20260505234600 | 60 | 352 | 2.0 | 5.0 | 0.00 | 0.01 | 0.01 | 77 | 1015.1 |
| 20260505233102 | 61 | 0 | 1.0 | 5.0 | 0.00 | 0.01 | 0.01 | 77 | 1015.2 |
| 20260505231559 | 61 | 0 | 0.0 | 4.0 | 0.00 | 0.01 | 0.01 | 75 | 1015.2 |
| 20260505230108 | 61 | 352 | 1.0 | 6.0 | 0.00 | 0.01 | 0.01 | 76 | 1015.3 |
| 20260505224600 | 60 | 0 | 0.0 | 5.0 | 0.00 | 0.01 | 0.01 | 77 | 1015.4 |
| 20260505223111 | 60 | 0 | 2.0 | 6.0 | 0.00 | 0.01 | 0.01 | 77 | 1015.5 |
| 20260505221559 | 60 | 0 | 0.0 | 1.0 | 0.00 | 0.01 | 0.01 | 77 | 1015.6 |
| 20260505220108 | 60 | 0 | 0.0 | 3.0 | 0.00 | 0.01 | 0.01 | 76 | 1015.6 |
| 20260505214559 | 60 | 0 | 0.0 | 3.0 | 0.00 | 0.01 | 0.01 | 78 | 1015.7 |
| 20260505213101 | 60 | 0 | 1.0 | 3.0 | 0.00 | 0.01 | 0.01 | 77 | 1015.7 |
| 20260505211559 | 60 | 352 | 0.0 | 4.0 | 0.00 | 0.01 | 0.01 | 77 | 1015.7 |
| 20260505210058 | 59 | 352 | 3.0 | 8.0 | 0.00 | 0.01 | 0.01 | 77 | 1015.7 |
| 20260505204608 | 59 | 352 | 0.0 | 8.0 | 0.00 | 0.01 | 0.01 | 80 | 1015.8 |
| 20260505203108 | 59 | 352 | 2.0 | 9.0 | 0.00 | 0.01 | 0.01 | 79 | 1015.9 |
| 20260505201608 | 59 | 0 | 0.0 | 3.0 | 0.00 | 0.01 | 0.01 | 78 | 1016.0 |
| 20260505200101 | 58 | 0 | 0.0 | 0.0 | 0.00 | 0.01 | 0.01 | 79 | 1016.0 |
| 20260505194612 | 58 | 0 | 0.0 | 3.0 | 0.00 | 0.01 | 0.01 | 81 | 1016.0 |
| 20260505193056 | 58 | 346 | 1.0 | 4.0 | 0.00 | 0.01 | 0.01 | 83 | 1016.0 |
| 20260505191601 | 57 | 0 | 0.0 | 2.0 | 0.00 | 0.01 | 0.01 | 82 | 1016.0 |
| 20260505190056 | 57 | 0 | 2.0 | 5.0 | 0.00 | 0.01 | 0.01 | 83 | 1016.1 |
| 20260505184555 | 57 | 0 | 0.0 | 6.0 | 0.00 | 0.01 | 0.01 | 83 | 1016.0 |
| 20260505183107 | 57 | 0 | 0.0 | 4.0 | 0.00 | 0.01 | 0.01 | 82 | 1016.0 |
| 20260505181558 | 56 | 0 | 0.0 | 1.0 | 0.00 | 0.01 | 0.01 | 86 | 1016.1 |
| 20260505180104 | 55 | 244 | 0.0 | 0.0 | 0.00 | 0.01 | 0.01 | 86 | 1016.0 |
| 20260505174600 | 55 | 0 | 0.0 | 3.0 | 0.00 | 0.01 | 0.01 | 88 | 1015.9 |
| 20260505173056 | 54 | 0 | 0.0 | 4.0 | 0.00 | 0.01 | 0.01 | 90 | 1015.8 |
| 20260505171558 | 53 | 0 | 0.0 | 0.0 | 0.00 | 0.01 | 0.01 | 91 | 1015.9 |
| 20260505170100 | 53 | 0 | 0.0 | 4.0 | 0.00 | 0.01 | 0.01 | 92 | 1015.7 |
| 20260505164606 | 53 | 0 | 0.0 | 0.0 | 0.01 | 0.01 | 0.01 | 92 | 1015.7 |
| 20260505163108 | 53 | 0 | 0.0 | 0.0 | 0.01 | 0.01 | 0.01 | 93 | 1015.7 |
| 20260505161610 | 52 | 0 | 0.0 | 3.0 | 0.01 | 0.01 | 0.01 | 93 | 1015.6 |
| 20260505160110 | 52 | 0 | 0.0 | 4.0 | 0.01 | 0.01 | 0.01 | 93 | 1015.7 |
| 20260505153117 | 52 | 0 | 0.0 | 0.0 | 0.00 | 0.00 | 0.00 | 93 | 1015.6 |
| 20260505151604 | 52 | 0 | 0.0 | 0.0 | 0.00 | 0.00 | 0.00 | 93 | 1015.6 |
| 20260505140109 | 52 | 0 | 0.0 | 0.0 | 0.00 | 0.00 | 0.00 | 91 | 1014.8 |
| 20260505130104 | 52 | 0 | 0.0 | 0.0 | 0.00 | 0.00 | 0.00 | 89 | 1014.5 |
| 20260505124604 | 53 | 0 | 0.0 | 5.0 | 0.00 | 0.00 | 0.00 | 88 | 1014.4 |
| 20260505123106 | 53 | 232 | 1.0 | 6.0 | 0.00 | 0.00 | 0.00 | 87 | 1014.5 |
| 20260505121600 | 53 | 0 | 0.0 | 5.0 | 0.00 | 0.00 | 0.00 | 87 | 1014.3 |
| 20260505120059 | 53 | 196 | 0.0 | 6.0 | 0.00 | 0.00 | 0.00 | 86 | 1014.2 |
| 20260505114558 | 53 | 0 | 0.0 | 7.0 | 0.00 | 0.00 | 0.00 | 86 | 1014.1 |
| 20260505113100 | 53 | 180 | 3.0 | 9.0 | 0.00 | 0.00 | 0.00 | 85 | 1014.0 |
| 20260505111559 | 53 | 194 | 2.0 | 5.0 | 0.00 | 0.00 | 0.00 | 85 | 1014.1 |
| 20260505110105 | 53 | 0 | 4.0 | 10.0 | 0.00 | 0.00 | 0.00 | 85 | 1014.0 |
| 20260505101602 | 54 | 179 | 3.0 | 10.0 | 0.00 | 0.00 | 0.00 | 84 | 1013.8 |
| 20260505100057 | 54 | 167 | 2.0 | 8.0 | 0.00 | 0.00 | 0.00 | 84 | 1013.8 |
| 20260505094603 | 54 | 182 | 4.0 | 9.0 | 0.00 | 0.00 | 0.00 | 83 | 1013.8 |
| 20260505093055 | 54 | 0 | 2.0 | 11.0 | 0.00 | 0.00 | 0.00 | 83 | 1013.7 |
| 20260505091559 | 54 | 163 | 2.0 | 9.0 | 0.00 | 0.00 | 0.00 | 83 | 1013.5 |
| 20260505090101 | 54 | 167 | 4.0 | 11.0 | 0.00 | 0.00 | 0.00 | 83 | 1013.5 |
| 20260505084628 | 55 | 167 | 3.0 | 12.0 | 0.00 | 0.00 | 0.00 | 83 | 1013.6 |
| 20260505083057 | 55 | 198 | 2.0 | 9.0 | 0.00 | 0.00 | 0.00 | 83 | 1013.5 |
| 20260505081602 | 55 | 178 | 4.0 | 9.0 | 0.00 | 0.00 | 0.00 | 83 | 1013.4 |
| 20260505080055 | 55 | 0 | 2.0 | 14.0 | 0.00 | 0.00 | 0.00 | 83 | 1013.3 |
| 20260505074613 | 55 | 0 | 3.0 | 11.0 | 0.00 | 0.00 | 0.00 | 82 | 1013.2 |
| 20260505073202 | 55 | 0 | 5.0 | 11.0 | 0.00 | 0.00 | 0.00 | 82 | 1013.1 |
| 20260505071557 | 56 | 147 | 5.0 | 14.0 | 0.00 | 0.00 | 0.00 | 81 | 1012.9 |
| 20260505070055 | 55 | 0 | 3.0 | 8.0 | 0.00 | 0.00 | 0.00 | 83 | 1012.8 |
| 20260505064559 | 55 | 0 | 0.0 | 0.0 | 0.00 | 0.00 | 0.00 | 84 | 1012.6 |
| 20260505063058 | 56 | 0 | 0.0 | 0.0 | 0.00 | 0.00 | 0.00 | 83 | 1012.6 |
| 20260505061624 | 56 | 0 | 0.0 | 8.0 | 0.00 | 0.00 | 0.00 | 83 | 1012.6 |
| 20260505060056 | 56 | 0 | 0.0 | 6.0 | 0.00 | 0.00 | 0.00 | 82 | 1012.6 |
| 20260505054616 | 56 | 175 | 1.0 | 7.0 | 0.00 | 0.00 | 0.00 | 82 | 1012.4 |
| 20260505053057 | 56 | 0 | 0.0 | 0.0 | 0.00 | 0.00 | 0.00 | 81 | 1012.4 |
| 20260505051558 | 56 | 0 | 0.0 | 3.0 | 0.00 | 0.00 | 0.00 | 79 | 1012.3 |
| 20260505041555 | 59 | 210 | 3.0 | 9.0 | 0.00 | 0.00 | 0.00 | 76 | 1011.9 |
| 20260505040100 | 60 | 238 | 2.0 | 7.0 | 0.00 | 0.00 | 0.00 | 75 | 1011.6 |
| 20260505034557 | 61 | 0 | 0.0 | 3.0 | 0.00 | 0.00 | 0.00 | 75 | 1011.4 |
| 20260505033058 | 62 | 0 | 0.0 | 8.0 | 0.00 | 0.00 | 0.00 | 73 | 1011.2 |
| 20260505031601 | 63 | 246 | 3.0 | 11.0 | 0.00 | 0.00 | 0.00 | 71 | 1011.0 |
| 20260505030056 | 66 | 0 | 3.0 | 7.0 | 0.00 | 0.00 | 0.00 | 68 | 1010.8 |
| 20260505024610 | 67 | 232 | 0.0 | 6.0 | 0.00 | 0.00 | 0.00 | 68 | 1010.4 |
| 20260505023105 | 68 | 0 | 3.0 | 8.0 | 0.00 | 0.00 | 0.00 | 68 | 1010.2 |
| 20260505021612 | 68 | 182 | 2.0 | 10.0 | 0.00 | 0.00 | 0.00 | 67 | 1010.2 |
| 20260505020055 | 69 | 0 | 2.0 | 8.0 | 0.00 | 0.00 | 0.00 | 65 | 1010.2 |
| 20260505014555 | 71 | 232 | 0.0 | 5.0 | 0.00 | 0.00 | 0.00 | 62 | 1010.3 |
| 20260505013058 | 71 | 0 | 1.0 | 6.0 | 0.00 | 0.00 | 0.00 | 64 | 1010.4 |
| 20260505011558 | 70 | 183 | 0.0 | 8.0 | 0.00 | 0.00 | 0.00 | 62 | 1010.4 |
| 20260505004606 | 70 | 0 | 2.0 | 9.0 | 0.00 | 0.00 | 0.00 | 64 | 1010.6 |
| 20260505003058 | 71 | 194 | 1.0 | 9.0 | 0.00 | 0.00 | 0.00 | 63 | 1010.6 |